Location: Nitra
(0.0000°N, 18.0833°E)
Time: 12:52:13
(UTC+01:00)

Daily predictions for brighter satellites

Satellite Brightness Start Highest point End
(mag) Time Altitude Azimuth Time Altitude Azimuth Time Altitude Azimuth
DELTA 2 R/B (1) 4.4 18:05:47 10° NNW 18:10:37 30° NE 18:15:26 10° ESE
CZ-2C R/B 3.9 18:08:06 10° N 18:12:48 82° WNW 18:17:27 10° SSW
H-2A R/B 2.9 18:10:54 10° SSE 18:14:39 53° E 18:18:26 10° N
Cosmos 1315 Rocket 3.4 18:11:08 10° SSE 18:14:48 36° E 18:18:26 10° NNE
YAOGAN 1 2.9 18:10:48 10° SSE 18:14:56 45° ENE 18:19:03 10° N
ALOS 4.3 18:12:28 10° SSW 18:16:38 33° WSW 18:20:47 10° NW
CSL-04 Debris 4.1 18:11:23 10° SSE 18:16:49 72° ENE 18:22:12 10° N
Ariane H10-3 4.4 18:05:29 10° W 18:17:31 65° SSW 18:21:33 10° ESE
Envisat 4.2 18:13:54 10° ESE 18:17:31 20° ENE 18:21:07 10° NNE
Gblst 52 Del rocket 4.4 18:17:01 10° SW 18:22:28 71° NW 18:28:17 10° NNE
CZ-4 R/B 1.6 18:19:12 10° S 18:23:22 82° WSW 18:27:34 10° NNW
BLOCK DM-SL R/B 3.3 18:19:37 10° W 18:24:22 88° S 18:28:40 10° E
SL-19 R/B 4.1 18:22:05 10° NNE 18:25:09 50° ESE 18:28:39 10° S
Cosmos 1455 Rocket 3.5 18:23:00 10° NNE 18:27:03 39° E 18:31:10 10° SSE
Ariane H10+ 4.2 18:13:01 10° W 18:27:58 77° S 18:33:05 11° E
Cosmos 2237 Rocket 4.1 18:24:00 10° SW 18:28:47 29° WNW 18:33:32 10° NNW
CZ-4 R/B 4.5 18:25:38 10° S 18:29:45 85° WSW 18:33:51 10° NNW
ARIANE 5 DEB (SYLDA) 3.8 18:26:04 10° WNW 18:29:46 56° N 18:36:01 13° E
GPS 2-14 Rocket1 2.7 18:27:38 10° WSW 18:31:51 90° NNE 18:34:59 17° ENE
ATLAS 3B CENTAUR R/B 3.6 18:27:07 10° SW 18:32:57 54° SE 18:44:35 16° ENE
ARIANE 5 R/B 1.9 18:43:11 10° WSW 18:44:53 21° S 18:45:43 15° SSE
Cosmos 1802 Rocket 4.2 18:39:58 10° SSE 18:45:59 48° E 18:51:51 10° NNE
ARIANE 5 DEB (SYLDA) 2.9 18:43:25 10° W 18:47:43 48° S 18:49:04 24° ESE
GPS 2-04 Rocket1 4.0 18:44:32 10° NNW 18:47:55 23° NE 18:48:08 23° NE
CENTAUR R/B 2.8 18:44:11 10° SW 18:49:24 54° WNW 18:54:56 10° N
Cosmos 2100 Rocket 3.9 18:43:23 10° S 18:49:33 76° E 18:55:45 10° N
Cosmos 1459 Rocket 4.0 18:44:23 10° S 18:50:45 71° E 18:57:03 10° N
Ariane H10+ 3.7 18:16:09 10° W 18:52:22 76° N 18:55:44 25° ENE
Meteor 1-15 Rocket 4.2 18:48:36 10° N 18:54:30 78° E 19:00:25 10° S
Ariane Rocket 3.3 18:49:47 10° S 18:54:50 68° WSW 18:59:50 10° NNW
Cosmos 1844 3.7 18:49:48 10° N 18:55:27 60° ENE 19:01:08 10° SSE
Intelsat 5-1 Rocket 3.8 18:51:37 10° NW 18:55:40 17° N 18:56:23 16° NNE
SL-16 R/B 3.0 18:50:20 10° SSW 18:55:49 52° WNW 19:01:18 10° N
Okean 1-7 Rocket 4.0 18:54:52 10° SSE 18:59:07 42° E 19:00:26 33° NE
ARIANE 5 R/B 3.7 18:56:06 10° WNW 18:59:50 57° N 19:02:59 26° ENE
Cosmos 1437 3.7 18:58:20 10° NNW 19:01:18 45° W 19:04:18 10° S
Cosmos 372 Rocket 4.5 19:01:17 10° S 19:06:06 38° ESE 19:07:00 35° ENE
Ariane H10 3.2 19:02:51 10° WSW 19:06:18 59° S 19:14:30 17° E
Cosmos 1943 4.4 19:04:20 10° SSE 19:08:25 23° ESE 19:08:25 23° ESE
Cosmos 2061 Rocket 3.9 19:02:44 10° S 19:08:58 79° E 19:14:37 13° N
MTI 3.9 19:09:04 48° NNW 19:09:47 71° WNW 19:12:57 10° SSW
MOS 1 4.2 19:07:28 10° SSE 19:13:09 77° ENE 19:18:49 10° N
Atlas Centaur 2 2.8 19:06:30 10° SW 19:14:21 64° SSE 19:17:05 37° E
Cosmos 2016 Rocket 3.9 19:09:29 10° S 19:15:52 79° E 19:20:32 19° N
Meteor 1-21 4.3 19:11:06 10° S 19:16:55 81° W 19:21:32 17° N
Dummy Sat-02 4.5 19:14:29 10° S 19:18:15 89° E 19:18:33 75° N
Palapa B4 Rocket 2.4 19:14:48 10° WNW 19:18:31 82° NNE 19:18:31 82° NNE
CZ-2D R/B 3.4 19:14:52 10° SSE 19:18:04 56° SE 19:18:04 56° SE
Cosmos 1461 3.9 19:15:01 10° S 19:18:53 36° SE 19:18:53 36° SE
Cosmos 1864 Rocket 4.4 19:16:59 10° S 19:23:14 66° E 19:25:43 38° NNE
YAOGAN 6 2.9 19:19:40 10° SSE 19:22:44 59° SSE 19:22:44 59° SSE
SL-24 R/B - RUBIN 2 3.8 19:22:36 10° SSW 19:27:42 59° ESE 19:27:42 59° ESE
Ariane V96 H10-3 4.5 19:27:07 10° W 19:31:10 75° S 19:52:36 10° E
SL-08 R/B 4.4 19:25:26 10° S 19:31:36 89° WSW 19:34:37 33° N
Cosmos 1844 Rocket 4.1 19:26:47 10° NW 19:31:56 38° WSW 19:37:05 10° S
Ariane H10-3 3.7 19:31:19 10° WNW 19:32:01 15° WNW 19:32:01 15° WNW
Cosmos 1892 Rocket 3.6 19:30:29 10° S 19:34:32 75° SSW 19:34:32 75° SSW
Cosmos 967 Rocket 4.4 19:33:58 10° NNW 19:40:13 82° WSW 19:46:31 10° SSE
EPKM 3.7 19:29:26 10° WNW 19:40:23 57° SSW 19:40:57 52° S
SJ 16-02 3.2 19:39:18 10° SW 19:43:06 28° WNW 19:44:47 22° NW
SPOT 3 Rocket 3.7 19:38:52 10° S 19:44:04 73° WSW 19:45:47 43° NNW
Thor Agena Rocket 4.3 19:47:51 43° SSE 19:47:51 43° SSE 19:51:36 10° S
ATLAS CENTAUR R/B 4.1 19:53:19 52° E 19:53:19 52° E 20:09:41 10° SE
Cosmos 1603 4.2 19:51:22 10° SSW 19:56:54 54° WNW 19:57:28 51° NW
Cosmos 2233 Rocket 4.0 19:53:24 10° S 19:58:57 70° SSE 19:58:57 70° SSE
Ariane 42P Rocket 3.7 19:58:57 10° WSW 20:02:29 63° S 20:02:29 63° S
Cosmos 2278 Rocket 4.3 20:16:10 17° S 20:16:10 17° S 20:17:19 10° S
ARIANE 5 DEB (SYLDA) 4.3 20:11:48 10° W 20:30:43 69° W 20:30:43 69° W
Ariane H10 4.4 19:45:23 10° W 20:41:29 82° S 20:42:04 79° SE
